Vorticity
6 6 6 6 8 11 11 10 11 9 8 12 8 1 5 12 11 10 9 8 8 8 7 7 7 7 7 7 6 6 6 7 7 7 8 8 6 7 8 6 7 7 7 7 7 7 6 7 6 6 7 6 7 7 8 8 6 8 9 11 12 9 3 -0 9 10 -4 -6 1 2 4 3 4 6 6 6 2 2 6 3 3 6 4 5 6 6 6 6
7 8 8 7 8 10 11 11 11 11 8 9 14 6 -3 5 13 12 9 9 8 9 8 8 8 8 8 7 7 7 6 7 6 6 7 6 6 7 6 6 6 6 6 6 6 7 7 7 7 7 8 8 8 8 8 6 7 8 7 10 7 5 6 7 4 -5 -5 2 2 3 7 5 5 11 9 4 4 6 9 5 1 4 4 5 7 7 6 7
8 9 9 8 9 10 10 11 10 12 12 7 12 16 3 -3 6 13 12 9 9 9 8 8 9 9 9 8 9 8 7 7 6 6 8 8 7 7 8 7 7 7 7 7 7 7 7 7 7 8 8 10 10 9 8 6 9 7 6 11 7 2 4 10 5 -7 -1 5 2 6 8 8 9 11 8 1 2 7 6 4 1 1 4 7 8 10 11 9
9 9 9 9 9 12 10 10 11 10 13 10 6 15 16 3 0 8 13 12 10 9 8 8 9 8 9 10 9 9 9 8 7 6 8 9 8 8 9 8 8 8 8 8 7 7 7 8 8 8 8 9 10 9 8 8 10 8 8 9 5 5 3 3 3 -2 3 6 4 7 6 7 6 5 5 2 4 7 4 4 4 4 7 9 9 11 13 12
10 10 11 11 9 12 12 9 12 11 11 12 7 9 18 14 4 4 10 14 11 9 10 8 8 9 8 9 9 9 10 9 7 8 9 9 8 9 8 8 9 8 8 9 8 8 8 8 8 9 10 10 10 11 9 9 7 7 9 6 3 8 7 4 5 5 7 9 7 7 7 6 2 2 3 5 10 7 2 2 4 7 12 14 11 8 7 8
12 10 12 14 10 10 13 10 10 13 11 11 10 6 12 18 14 7 6 12 14 11 11 10 8 9 8 8 9 9 9 9 8 9 10 9 9 9 9 8 8 8 9 9 9 10 9 9 9 9 11 10 10 10 9 8 6 7 9 7 6 8 8 10 12 10 8 10 12 10 7 4 3 3 2 7 7 -2 -1 7 7 9 13 13 10 7 7 7
12 12 12 13 12 9 11 12 11 13 12 11 11 6 9 17 19 16 7 7 14 14 12 12 10 8 8 8 7 8 8 8 6 7 8 8 8 8 9 8 8 9 9 9 9 10 10 10 10 9 10 11 11 9 6 7 7 8 8 8 8 7 7 8 8 10 7 9 14 9 4 4 3 3 4 7 4 0 8 11 8 10 14 12 10 10 10 8
11 12 13 12 13 11 9 12 12 13 12 11 11 7 8 15 19 20 14 7 9 15 14 12 12 9 9 8 8 8 8 8 4 7 8 7 8 8 8 9 8 10 9 9 9 9 10 10 11 11 12 11 8 7 5 4 7 9 9 9 9 9 8 5 6 11 10 7 6 4 5 5 3 4 5 7 8 12 15 12 9 13 17 14 10 10 9 10
12 12 14 12 13 13 11 11 12 14 12 10 11 8 8 14 17 17 16 13 8 11 14 13 13 11 9 9 9 8 8 9 5 8 11 7 8 9 9 10 10 10 9 10 9 10 11 11 13 13 12 8 3 3 3 3 6 8 7 7 7 8 8 9 8 8 8 5 2 2 3 4 4 5 8 13 13 13 13 12 11 13 15 12 11 10 8 9
12 13 15 12 12 14 12 11 12 13 13 10 10 9 8 12 18 15 11 14 12 10 12 13 13 11 11 10 9 9 8 9 8 8 10 9 10 10 9 9 9 10 11 11 11 12 12 11 12 10 7 4 3 5 6 8 9 8 7 7 6 7 7 7 6 6 7 5 5 5 4 5 6 8 11 13 11 9 10 11 10 10 12 12 12 11 9 12
13 15 16 12 12 14 13 11 10 12 12 11 10 10 10 11 16 16 9 10 14 11 11 12 13 12 11 10 10 10 8 10 12 11 10 10 11 10 10 9 8 8 10 12 12 12 10 10 7 5 5 4 8 10 8 11 11 11 12 10 8 8 7 6 6 7 5 5 8 7 7 9 11 14 12 7 7 8 8 9 7 7 11 14 14 13 11 12
16 16 15 12 13 14 13 12 10 11 11 10 11 11 11 12 13 15 10 9 12 12 12 11 12 12 11 11 11 10 9 10 12 12 10 10 11 10 11 11 10 8 8 11 13 12 10 10 9 9 10 9 11 8 6 10 11 11 12 11 9 6 3 4 6 4 5 8 9 7 8 12 12 11 9 6 8 7 7 8 6 5 8 11 11 9 9 9
19 15 12 11 12 13 13 12 9 11 12 10 11 12 12 14 13 13 12 10 11 12 12 11 11 11 10 10 10 9 11 12 10 10 10 10 10 9 9 10 11 10 9 9 10 9 9 10 11 12 11 12 12 6 7 12 8 6 6 3 1 1 2 4 5 4 7 9 8 8 8 11 11 8 9 10 8 6 7 7 6 8 7 7 7 6 7 9
18 13 11 10 11 13 13 12 10 11 12 10 11 13 13 15 15 13 13 11 11 12 12 12 11 10 9 8 10 9 9 9 8 10 11 10 10 10 10 10 10 11 10 9 9 10 12 14 12 8 8 11 9 6 11 12 7 6 6 4 5 7 7 5 5 6 8 8 7 9 8 9 10 6 8 9 8 8 7 4 5 9 9 9 12 11 7 5
15 12 10 10 10 11 12 12 11 11 11 10 11 14 14 15 15 13 13 12 11 11 11 12 11 11 11 9 10 9 8 9 8 8 9 9 10 9 9 10 10 10 11 10 11 10 9 12 10 8 8 6 4 5 7 7 8 9 7 8 8 8 7 9 10 7 9 13 10 7 7 14 14 6 6 9 9 8 6 3 5 9 11 11 12 12 9 7
13 12 9 8 8 10 14 14 13 12 11 11 12 14 14 12 12 11 11 10 10 10 10 11 12 11 11 11 13 13 10 9 8 7 7 7 8 9 8 8 9 9 10 9 10 8 6 7 8 8 8 4 3 5 3 2 6 6 3 3 2 3 4 7 9 4 8 21 21 10 3 11 19 12 8 9 7 6 4 3 6 5 5 9 8 6 8 11
10 11 9 7 8 11 17 17 13 12 11 11 13 13 12 9 8 9 8 8 7 8 7 8 9 10 10 10 13 15 11 8 8 8 7 6 6 8 7 7 7 7 8 8 8 8 8 8 7 7 7 6 7 7 7 9 8 6 6 8 7 8 6 8 15 8 -1 10 16 9 2 7 17 18 13 9 5 7 5 1 3 1 3 9 9 7 5 7
9 11 9 9 10 12 19 20 14 12 11 11 12 11 8 7 8 7 6 6 5 5 6 5 6 7 8 8 8 10 11 12 12 9 8 7 6 6 6 5 6 6 6 7 8 7 7 8 7 7 7 7 9 10 11 11 9 7 5 7 10 12 16 26 32 19 2 5 10 8 8 4 5 14 17 12 8 9 6 -1 -3 -1 7 9 7 11 7 3
12 11 6 11 15 13 18 20 14 12 11 10 11 8 7 7 7 7 6 6 6 7 8 5 4 4 4 6 7 6 9 14 15 13 10 10 8 8 7 6 6 5 6 7 7 6 6 7 7 8 10 10 10 8 8 6 6 6 2 4 3 -0 11 18 14 10 4 4 4 2 3 1 1 10 14 11 7 2 1 2 -1 -1 7 7 6 10 7 5
12 7 4 13 17 16 20 19 14 12 11 10 9 7 7 7 7 7 6 5 8 10 10 7 8 8 3 3 5 4 6 12 15 14 12 11 10 11 10 8 8 8 9 8 7 6 6 7 8 10 10 8 7 5 3 3 3 4 5 6 -0 -1 10 4 -4 5 6 3 7 6 6 7 7 10 9 6 5 1 3 11 9 3 5 7 7 8 7 6
10 3 6 19 19 19 22 17 13 12 10 8 8 9 7 6 6 5 4 6 9 10 9 8 10 10 7 6 4 2 3 5 9 10 12 12 10 12 12 12 12 12 13 11 9 8 6 8 7 7 6 2 3 3 2 5 7 9 10 5 5 12 12 -4 -5 7 5 3 7 4 2 3 3 10 15 6 0 -1 1 7 10 7 5 7 9 11 11 7
11 3 12 27 22 21 22 15 13 12 10 7 8 9 5 5 7 4 4 6 7 8 8 8 10 9 10 10 6 6 5 2 5 9 10 12 12 12 12 12 12 11 11 8 6 7 6 7 6 5 6 5 6 6 6 10 10 12 11 5 12 22 10 -5 2 12 7 3 3 1 1 1 1 6 6 -6 -8 2 6 6 7 6 3 4 7 9 11 9
13 7 22 33 21 21 21 14 12 12 9 7 8 7 3 7 8 4 4 4 6 8 7 8 10 9 10 10 8 11 13 7 5 6 7 10 11 9 8 8 6 5 7 6 5 6 5 6 6 5 6 6 8 10 11 13 8 5 7 5 13 22 10 -5 -0 6 4 3 7 13 10 7 7 5 6 11 14 19 23 20 11 8 7 3 6 8 8 9
12 12 30 30 16 20 19 12 12 11 10 8 7 5 4 8 8 4 4 3 4 5 6 9 9 10 11 11 9 11 16 11 4 2 2 4 6 6 5 4 3 3 4 5 4 5 6 8 7 5 6 7 8 10 10 9 6 5 4 5 15 24 12 -6 -9 -7 -4 0 5 10 7 3 4 3 11 26 22 10 9 13 9 10 14 3 -3 6 9 10
10 17 32 23 15 21 16 11 12 9 9 8 6 5 4 8 7 5 4 3 3 3 6 9 8 9 9 11 11 12 17 15 10 8 4 1 2 4 5 4 3 4 5 6 7 6 9 10 10 9 10 10 9 9 9 7 6 10 8 6 15 22 16 4 -8 -14 -4 4 -2 -1 3 3 6 4 4 12 16 13 8 9 9 14 32 19 -7 1 8 5
12 24 30 17 17 20 12 12 12 8 9 6 5 5 5 8 8 6 6 5 5 5 7 9 10 11 10 11 13 14 16 15 14 13 8 7 5 4 6 6 5 6 7 7 8 10 12 10 9 11 11 10 8 5 5 3 3 11 12 7 9 10 12 13 5 -3 2 3 -5 1 4 -2 4 5 0 6 14 16 8 5 3 1 25 33 9 10 14 4
19 28 24 14 19 19 11 13 12 7 7 6 6 7 6 8 8 7 6 5 6 5 6 10 14 15 15 14 13 15 16 14 14 13 13 15 12 7 7 7 8 10 10 9 7 9 13 12 10 10 8 7 7 5 7 8 6 11 11 7 9 11 11 11 11 12 8 1 2 9 -0 -10 2 5 -1 8 14 15 14 13 12 0 1 17 13 11 13 7
26 26 17 14 20 20 13 13 12 8 7 8 8 7 7 8 8 8 7 6 7 7 4 6 11 12 14 15 15 17 18 15 15 17 19 19 14 12 10 10 14 13 11 10 11 12 11 12 10 9 10 8 5 5 10 14 12 12 12 7 7 11 15 11 4 5 7 7 16 20 -3 -20 1 12 5 13 15 15 23 16 10 5 -6 -1 5 3 6 9
25 20 14 15 19 21 18 13 12 10 9 8 6 7 7 7 7 8 7 5 6 8 5 5 9 8 9 13 15 16 17 16 11 11 17 16 12 14 13 13 15 14 12 8 9 14 12 10 11 10 9 5 1 1 4 8 8 11 12 8 1 -4 3 11 5 3 8 12 22 33 17 -12 -8 10 13 19 15 10 26 20 3 6 2 -1 6 5 3 -1
20 16 14 16 16 19 19 16 15 14 11 10 9 10 8 5 6 7 8 6 4 9 11 9 10 9 7 10 13 14 14 16 10 7 13 13 8 10 12 12 10 8 11 8 5 9 8 7 10 8 3 1 2 2 3 7 9 12 11 8 7 -1 -3 8 12 9 7 5 12 26 26 8 -1 9 15 17 10 -0 10 14 4 10 15 7 5 10 8 -7
17 13 15 18 14 14 16 15 16 13 11 12 12 12 9 5 5 4 8 9 6 7 12 12 11 11 10 8 12 16 14 12 10 7 11 12 7 6 8 9 9 7 8 9 7 5 6 4 3 3 3 8 12 12 17 21 14 7 6 8 10 4 -1 3 6 6 2 3 13 17 17 16 8 9 11 9 10 6 5 10 8 10 16 11 -1 -3 -1 -9
15 12 16 19 13 10 10 10 9 7 8 10 10 11 7 5 7 8 9 10 9 4 2 9 12 11 12 8 6 11 13 11 11 9 12 14 11 9 10 8 10 10 9 10 10 9 12 9 3 6 6 2 3 7 17 23 15 9 10 12 11 4 2 3 1 4 4 6 16 16 12 16 13 9 8 5 9 10 7 11 11 6 9 10 3 -2 1 3
13 11 15 17 13 9 8 8 8 6 8 7 8 9 5 7 14 16 10 5 10 10 6 14 17 13 13 12 9 9 12 12 9 9 12 12 12 12 11 11 10 10 12 13 11 14 20 14 6 8 7 -0 -1 2 8 12 11 13 13 12 11 7 6 8 6 8 12 12 13 12 8 10 12 8 3 3 5 6 7 9 9 8 7 6 8 10 14 15
12 10 14 16 14 11 8 8 8 8 9 8 9 7 8 17 18 15 14 3 4 14 17 19 21 24 17 7 11 15 14 17 14 13 14 8 8 9 7 10 10 8 11 11 8 10 15 13 8 8 7 6 7 8 14 18 12 8 9 11 15 13 7 8 9 8 11 12 9 8 6 7 11 10 5 3 3 5 8 8 8 11 9 7 8 7 9 12
12 11 13 15 14 12 10 11 10 10 11 8 9 11 17 23 13 9 14 4 -1 9 14 6 5 26 33 13 10 10 3 11 14 12 18 16 11 8 5 9 11 9 9 8 5 5 8 10 8 11 11 10 14 15 17 23 15 7 8 8 12 17 12 11 13 8 3 4 8 11 8 5 5 7 8 8 8 9 8 8 7 7 6 7 7 8 10 7
13 10 11 13 14 12 10 11 9 7 9 7 14 23 22 16 6 3 7 2 2 7 12 6 -11 -1 21 15 14 15 4 6 10 8 18 22 20 18 11 6 7 9 10 11 11 8 9 12 7 7 13 15 18 12 6 12 12 7 7 3 6 19 21 16 15 12 4 -1 4 9 7 5 5 5 6 5 7 11 12 13 12 10 10 9 10 16 20 15
15 10 9 10 10 11 8 7 7 8 13 17 23 24 13 7 5 3 1 -3 2 2 1 17 18 7 11 12 15 19 4 -4 1 7 12 10 12 21 23 18 12 10 10 11 14 11 5 12 14 6 8 18 19 5 -2 11 12 3 4 4 5 12 18 18 10 4 6 3 1 6 7 6 6 5 6 6 6 7 9 12 13 14 14 8 5 9 19 34
21 18 16 12 11 17 16 17 19 18 20 22 20 14 5 4 2 2 3 -9 -6 0 -13 2 27 16 9 15 13 8 1 -4 -0 4 5 5 9 15 19 25 21 16 20 16 12 12 1 -1 9 7 4 12 16 3 -3 11 15 5 6 7 6 3 3 12 11 1 3 6 5 10 13 11 11 10 8 7 7 6 5 6 6 6 4 3 5 4 12 32
25 23 26 24 21 24 23 23 20 16 17 14 12 10 4 1 -5 0 13 -3 -12 0 -6 0 18 6 1 12 6 2 7 11 13 12 7 4 10 13 9 10 7 4 18 22 11 11 5 -6 -3 7 11 9 8 7 7 14 17 12 8 3 5 11 2 -1 7 8 6 5 3 5 6 5 9 11 9 7 7 8 5 2 7 14 10 5 11 15 19 28
17 15 19 20 17 15 14 13 11 10 13 10 10 11 5 1 -6 -3 14 9 -6 -3 -0 7 12 4 5 6 1 8 8 1 8 21 22 6 -1 9 11 7 4 -4 4 18 14 6 6 4 -1 3 14 10 3 7 10 9 10 13 15 5 -0 13 13 -0 -0 5 7 8 6 6 6 3 3 6 6 7 8 11 9 0 2 16 19 11 12 20 22 20
6 6 9 10 8 8 7 8 9 9 10 10 9 9 5 4 2 2 9 11 5 2 2 6 5 5 10 -1 -5 11 12 3 6 14 24 16 -3 2 10 3 2 2 2 12 18 9 1 6 8 8 16 14 3 5 12 16 13 7 12 15 8 10 13 7 5 3 3 6 7 7 8 5 4 5 4 5 6 7 12 17 15 17 23 18 10 11 15 17
2 3 8 8 5 8 8 6 8 8 8 8 5 6 5 -2 -2 7 13 13 11 8 7 9 6 9 20 6 -9 2 9 6 5 5 18 26 10 4 9 4 1 4 4 5 13 16 7 2 3 -0 2 4 -1 2 16 28 23 6 3 10 12 11 7 3 3 3 3 6 7 7 8 4 2 6 8 9 9 2 3 25 38 30 24 22 21 23 22 20
1 4 11 10 5 7 7 6 8 7 6 4 3 8 9 1 -1 7 13 14 16 13 9 10 6 7 20 11 -8 0 8 -4 -7 4 13 20 21 14 7 7 8 5 2 1 8 17 13 6 5 3 -2 -5 -8 -6 4 13 11 6 6 4 4 8 10 5 2 -0 2 4 3 3 6 7 8 11 8 5 10 7 -7 2 26 29 18 12 16 23 18 9
-1 4 13 13 8 8 7 7 9 7 5 7 8 9 11 11 13 15 13 10 11 12 10 10 9 7 15 13 -2 0 8 -6 -13 2 1 -3 13 21 10 7 12 9 2 -3 0 10 10 6 9 17 19 10 -2 -8 -0 10 9 2 2 3 1 4 8 9 7 4 2 1 2 3 4 6 8 8 3 1 12 20 6 -2 10 16 11 7 4 5 8 9
-1 5 14 13 8 8 9 7 8 9 7 8 8 6 7 12 14 15 15 10 9 11 11 10 11 10 10 12 6 1 3 -4 -12 -3 2 -3 2 10 12 10 11 13 10 0 -1 5 6 1 -2 6 20 23 11 -2 -6 1 5 5 7 8 4 4 8 9 9 10 8 2 1 2 -1 -2 -0 2 5 4 6 12 12 9 4 -4 -5 3 7 6 5 7
2 7 13 15 9 7 10 8 8 12 9 6 7 8 8 10 11 13 13 12 11 12 15 13 13 14 11 10 12 9 5 3 -3 -6 -1 0 -2 3 13 15 12 14 13 5 2 3 4 6 4 3 11 18 17 12 3 -4 -5 3 14 12 0 1 11 11 7 7 7 6 6 5 4 6 3 0 4 5 4 8 13 11 8 10 12 11 9 8 6 6
17 15 8 14 13 9 11 10 9 11 9 5 8 10 9 8 11 13 12 14 14 11 14 15 14 16 15 13 17 17 12 12 12 7 3 2 4 9 13 13 12 15 16 11 5 4 4 5 7 10 13 11 7 9 11 6 -1 -1 7 11 3 0 7 9 6 5 4 6 8 5 5 8 6 3 6 5 5 11 13 5 3 15 22 16 9 7 7 7
23 22 12 15 14 7 9 11 6 6 10 10 8 8 9 8 9 12 13 13 11 8 10 12 11 12 14 14 17 19 17 16 16 17 16 13 13 16 13 8 4 4 11 14 14 16 13 4 -1 4 11 11 7 8 9 8 8 6 7 12 10 3 4 9 11 10 7 5 4 2 1 2 7 21 30 24 12 11 16 13 8 9 11 12 12 8 5 6
8 13 15 15 9 3 8 11 3 0 9 13 10 7 9 10 8 10 14 12 9 8 10 12 8 6 9 12 13 13 13 12 11 13 16 15 14 16 15 14 10 5 4 5 9 18 23 18 9 4 4 5 5 8 9 7 8 9 6 7 11 9 5 6 9 9 8 6 3 1 1 0 -2 -1 4 7 5 2 5 8 6 8 12 13 12 9 6 6
6 10 11 10 10 5 4 10 7 3 7 10 10 10 10 10 8 7 10 11 9 7 8 10 9 5 5 7 9 10 10 11 11 9 10 11 11 11 12 14 15 14 13 9 6 9 15 18 15 9 7 8 6 4 7 9 8 8 4 0 7 19 19 8 4 6 8 10 11 7 7 10 4 -10 -15 -3 8 5 4 7 5 6 11 12 11 9 7 5
12 14 5 7 17 10 2 8 9 6 8 7 8 11 10 7 7 7 10 11 11 9 7 8 9 9 9 8 7 9 11 12 14 11 8 9 8 7 9 11 10 9 12 13 12 13 16 15 13 11 9 10 11 8 8 10 7 7 10 1 -5 11 27 20 9 7 7 9 11 11 15 23 26 20 13 11 12 8 6 5 2 0 3 7 10 9 6 5
7 5 -4 0 14 11 7 10 7 7 12 10 7 9 9 9 8 7 9 9 8 9 10 11 12 12 12 13 12 14 14 11 11 14 15 13 11 8 8 9 11 10 8 6 4 6 12 14 14 15 11 9 11 9 8 10 7 4 9 8 -5 -3 16 24 16 11 10 10 6 2 3 9 15 19 17 11 8 9 12 11 10 8 5 4 6 7 7 7
Height
5721 5721 5722 5723 5724 5725 5727 5728 5729 5731 5732 5734 5735 5737 5738 5740 5741 5743 5745 5747 5749 5751 5753 5756 5758 5760 5763 5765 5767 5769 5771 5774 5776 5779 5780 5782 5785 5786 5788 5790 5791 5793 5795 5797 5798 5800 5801 5802 5803 5805 5806 5808 5809 5810 5811 5812 5814 5815 5817 5819 5819 5818 5820 5822 5821 5821 5824 5825 5825 5826 5828 5829 5832 5834 5834 5834 5832 5831 5832 5835 5837 5836 5835 5835 5835 5837 5837 5837
5715 5716 5717 5718 5719 5720 5721 5723 5724 5726 5727 5729 5730 5732 5733 5735 5737 5738 5740 5742 5744 5746 5749 5751 5754 5756 5758 5761 5763 5765 5768 5770 5773 5775 5775 5778 5781 5782 5784 5786 5788 5790 5791 5793 5794 5796 5798 5799 5800 5802 5803 5804 5806 5807 5808 5810 5811 5813 5815 5816 5815 5815 5818 5819 5817 5818 5822 5823 5823 5825 5826 5828 5830 5831 5832 5831 5830 5829 5831 5835 5836 5833 5833 5833 5833 5835 5835 5835
5709 5710 5711 5712 5713 5715 5716 5718 5719 5720 5722 5724 5725 5727 5728 5730 5732 5733 5735 5737 5739 5742 5744 5747 5749 5751 5754 5757 5759 5761 5764 5766 5769 5770 5771 5775 5777 5778 5780 5782 5784 5786 5787 5789 5791 5793 5794 5795 5797 5798 5800 5801 5803 5804 5805 5807 5809 5810 5812 5812 5811 5813 5815 5815 5815 5816 5820 5820 5821 5823 5824 5826 5828 5829 5829 5829 5828 5827 5828 5832 5833 5831 5832 5832 5831 5833 5833 5832
5703 5704 5705 5707 5708 5709 5711 5712 5714 5715 5717 5719 5720 5722 5723 5725 5727 5729 5731 5733 5735 5737 5740 5742 5745 5747 5749 5752 5755 5757 5759 5762 5765 5766 5768 5771 5772 5774 5777 5778 5780 5782 5784 5785 5787 5789 5790 5792 5793 5795 5796 5798 5800 5801 5802 5805 5806 5807 5809 5808 5809 5811 5812 5812 5813 5815 5817 5818 5820 5821 5822 5823 5825 5826 5826 5827 5826 5825 5826 5828 5828 5829 5831 5830 5829 5830 5830 5829
5697 5698 5699 5701 5702 5704 5705 5707 5709 5710 5712 5714 5715 5717 5718 5720 5722 5724 5726 5728 5730 5733 5735 5738 5740 5742 5745 5748 5751 5753 5755 5758 5761 5762 5764 5767 5769 5771 5773 5774 5776 5778 5780 5781 5783 5785 5787 5788 5790 5792 5793 5795 5797 5798 5800 5802 5803 5805 5806 5805 5807 5809 5809 5810 5811 5813 5815 5816 5818 5819 5819 5819 5821 5823 5823 5825 5824 5822 5824 5825 5825 5826 5827 5828 5828 5827 5827 5827
5691 5692 5693 5695 5696 5698 5700 5702 5704 5705 5707 5709 5710 5712 5713 5715 5717 5719 5721 5723 5726 5728 5731 5733 5736 5738 5741 5744 5747 5749 5752 5755 5757 5758 5761 5763 5765 5767 5769 5770 5772 5774 5776 5778 5780 5782 5783 5785 5787 5788 5790 5791 5794 5796 5797 5799 5800 5802 5803 5803 5805 5806 5807 5809 5810 5811 5813 5814 5816 5817 5816 5816 5818 5820 5821 5822 5820 5819 5822 5823 5822 5822 5823 5824 5825 5824 5825 5825
5685 5686 5687 5689 5691 5693 5695 5697 5699 5700 5702 5704 5705 5707 5708 5710 5711 5714 5716 5719 5721 5723 5726 5728 5731 5734 5737 5740 5743 5745 5748 5751 5753 5754 5757 5759 5761 5763 5765 5767 5769 5771 5773 5774 5776 5778 5780 5782 5783 5785 5787 5789 5791 5793 5794 5795 5797 5799 5801 5801 5802 5803 5805 5806 5807 5808 5811 5813 5814 5814 5814 5814 5815 5817 5818 5819 5815 5816 5821 5820 5818 5819 5821 5822 5821 5822 5823 5822
5678 5680 5681 5683 5685 5687 5689 5691 5694 5696 5697 5699 5701 5702 5704 5705 5707 5709 5711 5714 5717 5719 5722 5724 5726 5729 5732 5736 5739 5741 5744 5747 5749 5751 5753 5755 5758 5760 5762 5764 5766 5767 5769 5771 5773 5775 5777 5779 5780 5782 5784 5786 5788 5789 5791 5792 5794 5797 5798 5798 5799 5801 5802 5804 5805 5806 5809 5811 5812 5812 5812 5812 5813 5814 5815 5815 5812 5813 5819 5817 5813 5815 5819 5820 5818 5819 5821 5821
5672 5673 5675 5677 5679 5681 5684 5686 5688 5691 5693 5694 5696 5698 5699 5701 5703 5704 5707 5709 5712 5715 5718 5720 5722 5725 5728 5732 5734 5737 5740 5743 5745 5748 5750 5752 5754 5757 5758 5760 5762 5764 5766 5767 5769 5771 5774 5776 5778 5780 5782 5783 5784 5785 5787 5789 5792 5794 5795 5795 5797 5798 5800 5802 5803 5804 5806 5808 5810 5810 5811 5811 5811 5811 5812 5813 5810 5811 5815 5814 5810 5812 5816 5817 5815 5816 5818 5819
5665 5667 5669 5671 5673 5676 5678 5681 5683 5686 5688 5690 5692 5694 5695 5697 5699 5700 5703 5705 5708 5711 5714 5715 5718 5721 5724 5727 5730 5733 5737 5739 5741 5744 5746 5748 5751 5753 5755 5757 5759 5760 5762 5764 5766 5768 5771 5773 5775 5776 5778 5779 5781 5782 5784 5787 5789 5790 5791 5793 5795 5796 5798 5799 5801 5802 5804 5805 5806 5807 5808 5808 5808 5809 5810 5811 5809 5807 5811 5811 5808 5810 5814 5814 5814 5814 5815 5816
5659 5661 5663 5665 5668 5670 5673 5676 5679 5681 5683 5685 5688 5690 5691 5693 5694 5697 5699 5702 5704 5707 5710 5712 5714 5717 5720 5723 5726 5730 5733 5735 5738 5740 5742 5744 5747 5749 5751 5753 5755 5757 5759 5761 5763 5765 5767 5769 5771 5773 5774 5776 5779 5781 5783 5785 5786 5786 5788 5791 5793 5795 5796 5798 5799 5801 5802 5802 5803 5804 5804 5805 5806 5807 5808 5808 5807 5805 5807 5808 5806 5808 5812 5813 5813 5813 5813 5814
5653 5655 5657 5660 5662 5665 5668 5671 5674 5676 5679 5681 5683 5686 5687 5689 5691 5693 5695 5698 5701 5704 5706 5708 5711 5713 5716 5720 5722 5725 5729 5732 5734 5736 5738 5741 5743 5746 5748 5750 5752 5754 5756 5758 5760 5763 5764 5766 5768 5770 5772 5774 5776 5778 5780 5782 5783 5784 5787 5789 5791 5793 5795 5796 5797 5798 5799 5800 5800 5801 5801 5803 5804 5805 5805 5805 5804 5803 5803 5805 5804 5806 5810 5811 5811 5811 5811 5811
5647 5649 5652 5654 5657 5660 5664 5667 5669 5672 5674 5677 5679 5682 5684 5686 5687 5689 5692 5694 5697 5700 5702 5705 5707 5710 5713 5715 5718 5722 5725 5728 5730 5732 5735 5738 5740 5742 5745 5747 5749 5751 5753 5755 5757 5759 5761 5764 5767 5768 5770 5772 5775 5776 5777 5779 5781 5783 5785 5787 5789 5791 5793 5794 5795 5795 5796 5797 5797 5798 5799 5801 5802 5802 5802 5801 5801 5801 5800 5801 5803 5806 5807 5808 5808 5808 5808 5808
5642 5644 5646 5649 5652 5655 5659 5662 5665 5667 5670 5673 5675 5678 5680 5682 5684 5686 5688 5691 5693 5696 5699 5701 5704 5707 5709 5712 5715 5718 5722 5725 5727 5729 5732 5734 5737 5739 5741 5744 5746 5748 5751 5752 5755 5757 5759 5762 5764 5765 5767 5770 5772 5773 5775 5778 5779 5781 5782 5784 5786 5788 5790 5791 5792 5793 5793 5794 5794 5795 5796 5797 5799 5800 5799 5798 5798 5798 5797 5798 5802 5805 5804 5804 5805 5805 5805 5805
5637 5639 5641 5644 5647 5651 5654 5657 5660 5663 5666 5669 5672 5675 5677 5679 5681 5683 5685 5688 5690 5693 5696 5698 5701 5704 5706 5709 5712 5715 5718 5722 5724 5726 5729 5731 5734 5736 5738 5741 5743 5746 5748 5750 5752 5755 5757 5759 5761 5762 5765 5767 5768 5769 5773 5776 5777 5778 5780 5782 5784 5786 5787 5787 5789 5790 5790 5791 5791 5792 5794 5794 5795 5796 5796 5796 5796 5795 5795 5795 5799 5801 5801 5801 5802 5803 5802 5802
5632 5634 5637 5640 5643 5646 5649 5652 5656 5659 5662 5665 5668 5671 5674 5676 5678 5680 5682 5685 5687 5690 5693 5696 5698 5701 5703 5706 5710 5712 5716 5719 5721 5723 5726 5729 5731 5733 5735 5738 5740 5743 5745 5747 5750 5751 5753 5755 5757 5760 5762 5764 5765 5767 5770 5772 5774 5777 5778 5780 5782 5784 5785 5784 5785 5786 5787 5787 5787 5789 5791 5792 5793 5793 5792 5793 5794 5793 5792 5793 5797 5798 5798 5799 5799 5800 5801 5800
5627 5630 5632 5635 5638 5641 5644 5648 5651 5655 5658 5661 5664 5668 5671 5673 5675 5677 5679 5682 5684 5687 5690 5693 5696 5699 5701 5704 5707 5709 5711 5715 5717 5720 5723 5726 5728 5730 5733 5735 5738 5740 5742 5745 5747 5749 5751 5753 5755 5757 5759 5761 5763 5765 5768 5771 5773 5775 5777 5778 5779 5781 5781 5781 5781 5783 5784 5784 5784 5785 5787 5790 5791 5790 5790 5790 5790 5790 5789 5790 5793 5795 5796 5797 5797 5797 5799 5798
5622 5625 5628 5631 5634 5636 5639 5643 5647 5651 5655 5658 5661 5664 5667 5670 5672 5674 5677 5679 5682 5685 5688 5691 5694 5696 5698 5701 5703 5705 5708 5712 5715 5717 5720 5723 5725 5728 5730 5732 5735 5737 5740 5742 5744 5746 5748 5750 5752 5754 5756 5759 5761 5764 5767 5769 5771 5773 5775 5775 5776 5778 5778 5779 5780 5781 5782 5782 5781 5782 5784 5787 5789 5789 5788 5788 5787 5787 5786 5787 5789 5791 5793 5794 5794 5794 5795 5796
5618 5621 5623 5626 5629 5632 5635 5639 5644 5647 5651 5655 5658 5661 5664 5666 5669 5671 5674 5677 5680 5683 5685 5688 5691 5693 5696 5698 5700 5702 5706 5710 5712 5715 5717 5720 5722 5725 5727 5729 5732 5734 5737 5739 5741 5743 5745 5748 5750 5752 5755 5757 5760 5763 5765 5767 5768 5769 5770 5771 5773 5774 5775 5778 5780 5780 5780 5780 5778 5779 5780 5782 5785 5787 5786 5786 5786 5786 5786 5787 5786 5787 5788 5789 5790 5791 5792 5793
5614 5616 5619 5622 5625 5628 5632 5636 5640 5644 5648 5651 5655 5658 5661 5664 5666 5669 5671 5675 5678 5680 5682 5685 5689 5691 5693 5696 5698 5700 5704 5707 5709 5711 5714 5716 5719 5722 5724 5726 5728 5731 5734 5737 5739 5741 5743 5745 5747 5751 5754 5757 5759 5760 5762 5763 5764 5765 5767 5768 5768 5770 5773 5777 5779 5779 5779 5779 5778 5777 5777 5779 5781 5783 5784 5784 5784 5784 5785 5786 5786 5785 5785 5785 5786 5788 5789 5789
5609 5612 5614 5617 5621 5624 5628 5632 5636 5640 5644 5648 5651 5655 5658 5661 5664 5667 5670 5673 5675 5677 5680 5683 5686 5687 5690 5692 5694 5697 5701 5704 5706 5708 5711 5713 5716 5719 5721 5723 5726 5729 5732 5734 5736 5737 5740 5742 5746 5750 5752 5754 5755 5756 5758 5759 5760 5762 5763 5764 5765 5766 5771 5774 5777 5778 5778 5778 5777 5775 5774 5775 5777 5780 5782 5782 5782 5782 5782 5783 5783 5782 5782 5782 5783 5784 5786 5786
5605 5608 5611 5613 5617 5620 5624 5628 5633 5637 5641 5645 5649 5652 5656 5659 5662 5664 5668 5670 5673 5675 5677 5680 5683 5685 5687 5689 5690 5694 5699 5702 5703 5706 5709 5711 5713 5716 5719 5721 5724 5726 5729 5730 5732 5734 5737 5742 5745 5747 5748 5749 5751 5752 5754 5756 5758 5760 5760 5761 5762 5765 5769 5771 5773 5775 5776 5776 5777 5775 5773 5772 5773 5777 5780 5780 5781 5780 5781 5781 5780 5778 5777 5777 5778 5780 5781 5782
5601 5604 5606 5609 5613 5617 5620 5625 5630 5634 5638 5642 5646 5649 5654 5657 5659 5662 5665 5668 5670 5672 5674 5678 5680 5682 5684 5686 5688 5692 5698 5699 5700 5703 5706 5708 5711 5713 5716 5718 5721 5723 5725 5727 5730 5732 5736 5741 5743 5743 5744 5745 5747 5749 5751 5753 5754 5756 5757 5758 5760 5764 5767 5769 5769 5771 5772 5773 5773 5773 5772 5771 5771 5774 5776 5777 5778 5778 5779 5780 5779 5777 5774 5773 5774 5776 5777 5777
5597 5599 5602 5605 5610 5613 5617 5622 5627 5632 5636 5640 5643 5647 5652 5655 5656 5659 5662 5665 5668 5670 5672 5675 5677 5679 5682 5683 5685 5690 5694 5695 5697 5699 5702 5706 5708 5709 5713 5716 5718 5721 5722 5725 5727 5731 5735 5737 5738 5739 5740 5741 5743 5745 5747 5749 5750 5753 5754 5755 5759 5762 5764 5766 5766 5767 5768 5769 5769 5770 5769 5768 5769 5771 5772 5773 5774 5775 5776 5777 5778 5777 5773 5771 5771 5773 5774 5774
5594 5596 5599 5603 5607 5610 5615 5620 5625 5629 5633 5637 5641 5645 5650 5652 5654 5657 5660 5663 5666 5668 5670 5672 5675 5677 5679 5680 5683 5687 5690 5692 5694 5695 5700 5705 5704 5706 5710 5713 5716 5718 5720 5723 5724 5729 5733 5733 5734 5735 5737 5739 5740 5742 5744 5745 5747 5751 5752 5754 5758 5761 5762 5763 5764 5764 5765 5766 5766 5766 5766 5766 5766 5768 5771 5772 5772 5773 5773 5774 5776 5776 5774 5770 5768 5771 5772 5772
5591 5593 5596 5600 5604 5608 5612 5617 5622 5626 5630 5634 5639 5643 5647 5650 5652 5655 5658 5661 5663 5665 5668 5670 5672 5674 5676 5678 5681 5684 5686 5689 5691 5691 5696 5701 5701 5702 5707 5710 5713 5715 5718 5720 5721 5725 5729 5730 5731 5733 5734 5736 5737 5739 5740 5741 5745 5749 5751 5753 5756 5758 5759 5761 5762 5763 5763 5763 5764 5764 5763 5762 5762 5765 5768 5770 5770 5770 5771 5771 5772 5773 5773 5770 5767 5768 5768 5768
5588 5590 5594 5598 5602 5606 5610 5615 5620 5624 5629 5634 5638 5642 5645 5647 5650 5653 5656 5659 5661 5663 5666 5668 5670 5672 5674 5676 5678 5681 5683 5686 5687 5688 5693 5698 5698 5700 5703 5706 5710 5712 5715 5717 5718 5722 5726 5727 5728 5730 5731 5733 5734 5736 5738 5739 5743 5747 5749 5751 5753 5755 5756 5757 5759 5760 5760 5761 5762 5762 5760 5759 5760 5762 5765 5767 5767 5768 5769 5768 5768 5770 5770 5768 5766 5765 5765 5765
5585 5588 5592 5596 5600 5604 5609 5614 5618 5623 5628 5633 5637 5640 5642 5645 5648 5651 5654 5657 5659 5661 5664 5666 5668 5670 5671 5673 5676 5679 5681 5684 5685 5686 5692 5696 5695 5697 5700 5703 5707 5710 5712 5713 5715 5719 5723 5725 5726 5728 5728 5729 5731 5734 5737 5739 5741 5744 5747 5748 5749 5751 5752 5753 5753 5754 5756 5757 5757 5759 5759 5758 5759 5761 5763 5764 5764 5765 5766 5766 5765 5766 5765 5762 5762 5763 5762 5762
5583 5587 5591 5595 5598 5602 5607 5612 5616 5621 5626 5629 5633 5636 5640 5643 5646 5649 5652 5655 5657 5659 5662 5665 5666 5668 5669 5672 5674 5677 5679 5682 5684 5684 5688 5692 5692 5694 5698 5701 5705 5707 5708 5710 5713 5717 5720 5723 5724 5725 5726 5727 5730 5733 5735 5737 5738 5741 5744 5744 5745 5746 5746 5749 5750 5750 5752 5752 5753 5756 5758 5758 5757 5759 5762 5762 5762 5762 5763 5764 5763 5763 5762 5760 5760 5760 5760 5760
5582 5586 5590 5593 5597 5601 5605 5610 5614 5619 5624 5627 5631 5634 5638 5641 5645 5648 5651 5653 5656 5658 5661 5663 5664 5666 5668 5670 5672 5675 5678 5680 5681 5681 5684 5689 5690 5692 5696 5698 5700 5703 5705 5707 5710 5713 5717 5720 5721 5722 5723 5725 5728 5730 5732 5734 5735 5738 5740 5741 5742 5743 5743 5745 5747 5748 5749 5748 5751 5754 5757 5756 5755 5757 5759 5758 5757 5758 5759 5760 5761 5761 5761 5761 5760 5759 5759 5758
5581 5585 5589 5593 5596 5600 5604 5609 5614 5618 5622 5626 5630 5633 5637 5640 5643 5646 5649 5652 5654 5656 5658 5660 5662 5664 5666 5669 5671 5674 5676 5677 5678 5679 5683 5687 5688 5690 5693 5695 5697 5700 5702 5704 5708 5711 5714 5717 5717 5718 5721 5723 5725 5727 5729 5731 5732 5734 5736 5738 5739 5740 5739 5741 5745 5746 5745 5746 5750 5752 5753 5752 5752 5754 5755 5753 5754 5754 5756 5758 5759 5760 5761 5762 5762 5761 5760 5757
5581 5584 5588 5592 5595 5599 5603 5608 5612 5616 5620 5624 5628 5632 5635 5638 5641 5645 5648 5651 5652 5654 5657 5658 5660 5663 5665 5667 5669 5672 5675 5675 5675 5678 5682 5685 5687 5689 5692 5694 5697 5699 5701 5703 5706 5709 5712 5713 5714 5717 5719 5721 5723 5724 5727 5729 5729 5731 5733 5735 5737 5737 5737 5738 5742 5744 5743 5745 5748 5749 5749 5749 5749 5750 5750 5750 5751 5751 5753 5756 5757 5758 5759 5760 5762 5762 5760 5758
5580 5583 5587 5591 5594 5598 5602 5606 5610 5614 5618 5622 5626 5630 5634 5637 5641 5644 5648 5650 5651 5653 5656 5657 5658 5661 5663 5665 5668 5670 5673 5674 5675 5678 5681 5683 5686 5688 5690 5692 5695 5697 5700 5703 5705 5707 5710 5710 5711 5714 5717 5719 5721 5723 5725 5726 5727 5728 5730 5732 5734 5735 5735 5736 5738 5740 5741 5743 5744 5745 5746 5747 5748 5747 5746 5746 5748 5748 5750 5752 5753 5754 5755 5756 5757 5758 5758 5757
5579 5583 5587 5590 5594 5597 5601 5605 5609 5613 5617 5621 5625 5628 5632 5636 5640 5643 5646 5648 5650 5653 5656 5656 5657 5660 5662 5664 5666 5669 5672 5673 5674 5678 5679 5680 5683 5686 5688 5690 5692 5695 5698 5701 5702 5704 5707 5708 5709 5712 5715 5718 5720 5721 5722 5723 5724 5725 5728 5730 5731 5732 5734 5735 5736 5737 5738 5739 5740 5742 5743 5744 5745 5744 5743 5744 5745 5746 5747 5749 5750 5751 5752 5752 5752 5752 5752 5752
5579 5583 5586 5589 5593 5597 5601 5605 5608 5612 5616 5620 5624 5627 5631 5636 5639 5641 5644 5646 5649 5653 5656 5655 5656 5659 5661 5662 5664 5667 5671 5672 5672 5676 5678 5679 5681 5684 5687 5688 5690 5693 5696 5698 5700 5701 5704 5707 5709 5711 5713 5715 5717 5719 5719 5720 5722 5722 5724 5727 5729 5731 5732 5733 5734 5735 5736 5736 5738 5740 5741 5742 5742 5741 5741 5742 5743 5744 5745 5746 5748 5749 5749 5749 5749 5748 5748 5748
5579 5582 5586 5589 5593 5596 5600 5604 5608 5611 5615 5618 5623 5627 5631 5634 5637 5639 5641 5643 5647 5650 5653 5654 5656 5658 5660 5662 5664 5666 5670 5671 5671 5673 5676 5678 5680 5683 5686 5687 5689 5691 5694 5696 5699 5700 5702 5705 5707 5709 5711 5711 5713 5716 5717 5718 5721 5721 5722 5724 5727 5729 5730 5731 5732 5733 5733 5734 5735 5738 5739 5739 5739 5738 5739 5740 5739 5740 5741 5743 5744 5746 5747 5747 5746 5744 5744 5743
5579 5582 5585 5589 5593 5596 5600 5603 5607 5610 5614 5618 5622 5626 5629 5632 5634 5635 5638 5641 5644 5646 5650 5653 5655 5658 5660 5662 5664 5666 5669 5671 5670 5672 5675 5676 5679 5681 5683 5686 5687 5690 5693 5695 5697 5699 5701 5703 5705 5707 5709 5709 5710 5713 5714 5716 5719 5720 5720 5722 5725 5727 5727 5728 5730 5731 5731 5732 5733 5735 5736 5736 5736 5734 5735 5737 5737 5737 5739 5740 5741 5742 5743 5744 5743 5741 5740 5740
5578 5581 5585 5588 5592 5596 5599 5602 5606 5609 5613 5617 5621 5625 5628 5631 5631 5632 5635 5639 5642 5644 5649 5651 5653 5656 5659 5662 5665 5666 5668 5670 5670 5672 5674 5675 5677 5679 5680 5683 5685 5688 5691 5693 5695 5697 5698 5701 5702 5704 5707 5709 5709 5710 5712 5714 5717 5718 5719 5721 5723 5725 5725 5726 5727 5727 5728 5729 5730 5732 5733 5732 5732 5731 5732 5734 5735 5735 5736 5737 5738 5738 5738 5739 5739 5738 5737 5736
5578 5581 5584 5588 5591 5595 5598 5601 5605 5608 5613 5617 5621 5624 5627 5631 5631 5631 5634 5638 5640 5644 5648 5649 5651 5653 5656 5660 5664 5666 5667 5669 5670 5671 5673 5675 5676 5676 5677 5679 5682 5684 5686 5688 5690 5693 5694 5696 5699 5701 5704 5707 5708 5708 5710 5712 5715 5717 5718 5718 5720 5722 5723 5724 5724 5725 5726 5728 5728 5730 5730 5728 5728 5729 5729 5731 5732 5733 5734 5734 5734 5734 5735 5735 5735 5733 5731 5731
5578 5581 5585 5588 5591 5594 5598 5601 5605 5609 5613 5617 5621 5623 5626 5629 5630 5631 5636 5637 5639 5643 5646 5646 5648 5650 5652 5656 5660 5661 5664 5666 5667 5669 5671 5672 5673 5673 5675 5677 5678 5678 5680 5682 5685 5689 5690 5692 5696 5698 5701 5704 5705 5706 5708 5711 5714 5716 5717 5717 5718 5719 5720 5721 5722 5722 5724 5725 5725 5726 5726 5725 5726 5727 5727 5728 5730 5731 5731 5731 5730 5731 5731 5732 5731 5729 5727 5727
5579 5582 5585 5588 5591 5594 5598 5602 5606 5610 5613 5617 5620 5622 5624 5625 5626 5630 5635 5636 5637 5642 5644 5645 5647 5648 5651 5653 5654 5655 5659 5662 5663 5665 5666 5668 5669 5671 5672 5673 5675 5677 5679 5681 5683 5686 5687 5688 5693 5697 5699 5701 5703 5704 5708 5710 5711 5713 5713 5714 5716 5717 5718 5718 5719 5720 5721 5722 5722 5723 5723 5722 5723 5725 5726 5727 5727 5729 5729 5728 5727 5727 5728 5728 5727 5726 5725 5725
5581 5584 5587 5589 5592 5595 5599 5602 5606 5609 5612 5615 5616 5619 5621 5623 5624 5629 5634 5635 5636 5640 5642 5644 5646 5648 5650 5651 5651 5653 5656 5659 5660 5660 5661 5663 5666 5668 5670 5671 5673 5676 5678 5680 5682 5684 5685 5685 5689 5694 5696 5699 5701 5702 5705 5706 5708 5708 5708 5709 5712 5713 5713 5714 5714 5716 5718 5718 5719 5720 5720 5720 5720 5722 5723 5724 5725 5726 5727 5725 5725 5725 5726 5726 5725 5724 5724 5725
5582 5586 5588 5590 5593 5595 5599 5602 5605 5608 5611 5613 5615 5618 5621 5623 5625 5629 5631 5632 5635 5637 5639 5641 5644 5647 5649 5650 5651 5652 5654 5656 5656 5656 5657 5660 5662 5664 5668 5670 5672 5674 5676 5678 5680 5682 5683 5684 5687 5690 5693 5695 5697 5698 5699 5701 5702 5703 5703 5705 5707 5708 5709 5710 5710 5712 5714 5715 5716 5717 5718 5718 5718 5719 5720 5720 5721 5723 5724 5723 5723 5724 5724 5724 5724 5724 5724 5725
5582 5586 5589 5591 5593 5596 5599 5602 5605 5608 5610 5613 5616 5619 5621 5623 5624 5627 5629 5630 5632 5634 5637 5639 5641 5644 5648 5650 5651 5651 5652 5653 5652 5652 5654 5657 5658 5661 5665 5667 5670 5673 5674 5676 5678 5679 5682 5683 5684 5687 5690 5692 5693 5694 5695 5696 5697 5698 5698 5701 5703 5704 5706 5708 5708 5710 5712 5712 5713 5714 5715 5715 5716 5717 5718 5718 5719 5721 5722 5722 5723 5723 5723 5724 5724 5724 5725 5725
5583 5586 5588 5591 5594 5596 5599 5602 5605 5607 5609 5612 5615 5617 5619 5620 5622 5625 5626 5627 5629 5631 5634 5636 5638 5641 5644 5646 5648 5649 5651 5651 5650 5651 5653 5655 5657 5660 5663 5665 5668 5671 5672 5673 5675 5677 5679 5680 5682 5685 5687 5689 5691 5691 5692 5693 5694 5695 5696 5697 5699 5701 5704 5705 5706 5708 5709 5710 5710 5711 5712 5712 5713 5714 5716 5717 5718 5719 5719 5720 5722 5722 5722 5723 5723 5723 5723 5723
5583 5586 5588 5590 5593 5596 5598 5601 5604 5607 5609 5611 5613 5616 5618 5619 5621 5622 5624 5625 5628 5630 5632 5634 5636 5638 5640 5642 5645 5647 5648 5649 5650 5651 5651 5653 5656 5658 5661 5663 5665 5667 5669 5670 5672 5674 5676 5677 5679 5682 5684 5686 5689 5689 5689 5691 5692 5693 5693 5695 5697 5699 5701 5703 5704 5705 5706 5708 5708 5708 5710 5711 5711 5712 5714 5716 5717 5717 5718 5718 5719 5720 5720 5720 5720 5720 5720 5721
5584 5586 5588 5590 5593 5596 5599 5601 5604 5606 5609 5611 5613 5615 5616 5618 5619 5620 5622 5625 5627 5628 5630 5632 5634 5636 5638 5640 5642 5644 5645 5646 5648 5648 5649 5651 5653 5655 5658 5660 5661 5664 5666 5668 5669 5671 5673 5675 5677 5679 5680 5683 5685 5685 5686 5688 5689 5689 5691 5694 5696 5698 5699 5700 5701 5702 5704 5706 5706 5707 5709 5710 5710 5710 5712 5714 5715 5715 5716 5717 5717 5718 5718 5718 5718 5718 5718 5719
5584 5586 5588 5591 5593 5596 5599 5602 5604 5606 5608 5610 5612 5613 5615 5617 5618 5620 5621 5623 5625 5626 5628 5630 5632 5634 5635 5636 5639 5641 5642 5643 5645 5645 5647 5649 5651 5653 5656 5657 5659 5662 5663 5665 5667 5669 5671 5673 5675 5676 5678 5680 5682 5682 5682 5684 5686 5687 5689 5692 5694 5695 5696 5697 5698 5700 5702 5703 5704 5705 5707 5708 5708 5708 5709 5711 5712 5713 5713 5714 5715 5715 5716 5717 5717 5717 5716 5717
5584 5587 5589 5591 5593 5596 5599 5601 5604 5606 5607 5609 5611 5612 5614 5615 5617 5619 5620 5622 5623 5625 5627 5629 5631 5632 5633 5634 5636 5637 5639 5640 5641 5643 5645 5647 5649 5651 5653 5654 5657 5659 5660 5662 5664 5666 5668 5670 5671 5673 5675 5676 5678 5678 5679 5681 5683 5684 5687 5689 5691 5692 5693 5694 5695 5697 5699 5701 5701 5702 5704 5706 5706 5706 5707 5708 5710 5711 5711 5712 5713 5713 5714 5714 5715 5715 5715 5715
5585 5587 5589 5591 5594 5596 5599 5601 5603 5605 5607 5608 5610 5611 5613 5615 5616 5618 5619 5620 5622 5624 5626 5627 5629 5630 5631 5633 5634 5635 5637 5639 5640 5642 5643 5644 5646 5648 5649 5651 5654 5656 5657 5659 5661 5663 5664 5666 5668 5670 5671 5672 5673 5676 5677 5678 5680 5682 5683 5686 5687 5688 5689 5690 5692 5694 5696 5698 5699 5699 5701 5702 5704 5704 5704 5706 5707 5708 5709 5710 5710 5711 5711 5712 5713 5713 5713 5713
5585 5587 5589 5591 5593 5595 5597 5600 5602 5604 5606 5608 5609 5611 5612 5614 5615 5617 5618 5620 5621 5623 5624 5626 5627 5628 5630 5631 5632 5634 5636 5637 5638 5640 5641 5642 5644 5646 5646 5648 5650 5652 5654 5656 5658 5660 5661 5663 5665 5667 5668 5668 5670 5673 5674 5675 5677 5678 5680 5682 5684 5684 5686 5687 5689 5691 5693 5694 5696 5697 5698 5699 5700 5701 5702 5702 5703 5705 5706 5707 5707 5708 5709 5709 5710 5711 5711 5711
5585 5588 5590 5591 5593 5595 5597 5599 5601 5603 5605 5607 5608 5610 5611 5613 5614 5616 5618 5619 5620 5621 5623 5625 5626 5627 5628 5629 5631 5633 5634 5635 5636 5638 5640 5641 5642 5643 5644 5645 5647 5649 5651 5653 5655 5657 5658 5660 5662 5663 5665 5666 5668 5669 5671 5672 5673 5675 5677 5679 5680 5681 5683 5684 5686 5688 5690 5690 5692 5694 5695 5696 5697 5698 5699 5699 5700 5701 5702 5703 5704 5705 5706 5706 5707 5708 5708 5708